www.pogodaiklimat.ru

Погода и климат >> Архив погоды >> Канада >> Peterborough Arpt


ПОГОДА в Peterborough Arpt

  • Прогноз погоды в Peterborough Arpt
  • Монитор погоды в Peterborough Arpt
  • Климат города

АРХИВ ПОГОДЫ в Peterborough Arpt

Время (UTC), дата Ветер
(напр.,м/с)
 
Видим.   Явления Облачность Т
(С)
Тd
(С)
f
(%)
Тe
(С)
Тes
(С)
Комфортность P
(гПа)
Po
(гПа)
Тmin
(С)
Tmax
(С)
R
(мм)
R24
(мм)
S
(см)
03 13.07 н/о н/о +6.0 +1.7 74 1008.7 1007.4
06 13.07 С 7 н/о н/о +4.8 0.0 71 -1 -1 1010.8 1009.5 +2.9 +7.6 19
09 13.07 С 6 н/о н/о +4.0 -0.6 72 -1 -1 1012.5 1011.2
12 13.07 С 8 н/о н/о +4.9 -1.3 64 -1 -1 1013.8 1012.5 +3.4 +7.6
15 13.07 СЗ 6 н/о н/о +6.7 -0.3 61 +3 +3 1014.4 1013.1
18 13.07 СЗ 4 н/о н/о +7.7 +0.6 61 +5 +5 1015.0 1013.7 +3.4 +8.1
21 13.07 ЮЗ 6 н/о н/о +8.1 +0.5 59 +4 +4 1015.0 1013.7
00 14.07 СЗ 8 н/о н/о +8.0 +1.4 63 +4 +4 1015.0 1013.7 +3.4 +9.8
03 14.07 З 7 н/о н/о +6.3 +1.0 69 +2 +2 1014.7 1013.4
06 14.07 З 5 н/о н/о +3.7 +0.5 80 -1 -1 1014.5 1013.2 +3.4 +9.8 11
09 14.07 З 5 н/о н/о +3.2 +0.8 84 -2 -2 1013.6 1012.3
12 14.07 З 7 н/о н/о +2.9 +1.3 89 -3 -3 1012.5 1011.2 +2.6 +9.8
15 14.07 З 7 н/о н/о +3.4 +2.0 91 -3 -3 1012.2 1010.9
18 14.07 З 8 н/о н/о +4.7 +2.5 86 -1 -1 1011.6 1010.3 +2.5 +4.8
21 14.07 З 9 н/о н/о +5.5 +2.7 82 -1 -1 1011.2 1009.9
00 15.07 З 7 н/о н/о +4.8 +2.4 84 -1 -1 1011.2 1009.9 +2.5 +5.5
03 15.07 Ю 5 н/о н/о +3.2 +1.2 87 -2 -2 1011.2 1009.9
06 15.07 ЮЗ 4 н/о н/о +2.8 +1.0 88 -2 -2 1011.6 1010.3 +2.5 +5.5 22
09 15.07 З 4 н/о н/о +5.7 +2.4 79 +2 +2 1011.7 1010.4
12 15.07 З 3 н/о н/о +3.6 +0.7 81 -0 -0 1012.0 1010.7 +2.5 +5.5
15 15.07 ЮЗ 4 н/о н/о +5.2 +2.2 81 +1 +1 1011.8 1010.5
18 15.07 З 6 н/о н/о +8.2 +3.4 72 +4 +4 1011.9 1010.6 +2.5 +8.3
21 15.07 СЗ 4 н/о н/о +8.8 +3.4 69 +6 +6 1012.9 1011.6
00 16.07 С 5 н/о н/о +9.0 +3.9 70 +6 +6 1013.6 1012.3 +2.7 +10.2
03 16.07 Ю 3 н/о н/о +4.4 +1.5 81 +1 +1 1014.1 1012.8
06 16.07 СВ 2 н/о н/о +4.5 +2.3 86 +2 +2 1014.7 1013.4 +2.7 +10.2 17
09 16.07 Ю 1 н/о н/о +2.6 +0.2 84 +1 +1 1015.1 1013.8
12 16.07 Ю 3 н/о н/о +3.6 +1.3 85 0 0 1014.5 1013.2 +2.2 +10.2
15 16.07 Ю 4 н/о н/о +5.2 +2.1 80 +1 +1 1014.0 1012.7
18 16.07 Ю 4 н/о н/о +7.6 +2.9 72 +5 +5 1013.4 1012.1 +2.2 +7.7
21 16.07 Ю 2 н/о н/о +8.2 +3.4 72 +6 +6 1012.9 1011.6
00 17.07 Ю 2 н/о н/о +7.9 +3.1 72 +6 +6 1012.4 1011.1 +2.2 +9.8
03 17.07 Ю 1 н/о н/о +9.4 +4.4 71 +9 +9 1011.5 1010.2
06 17.07 В 1 н/о н/о +8.0 +4.4 78 +8 +8 1011.2 1009.9 +2.2 +11.4
09 17.07 СВ 2 н/о н/о +7.5 +4.6 82 +5 +5 1010.6 1009.3
12 17.07 ЮВ 4 н/о н/о +8.9 +4.7 75 +6 +6 1009.5 1008.2 +5.5 +11.4
15 17.07 СВ 4 н/о н/о +6.6 +3.5 81 +3 +3 1009.0 1007.7
18 17.07 СВ 4 н/о н/о +6.6 +3.2 79 +3 +3 1008.0 1006.7 +4.8 +9.0
21 17.07 С 4 н/о н/о +5.9 +3.2 83 +2 +2 1007.6 1006.3
00 18.07 СВ 4 н/о н/о +5.6 +2.5 80 +2 +2 1007.3 1006.0 +4.8 +8.9
03 18.07 СВ 6 н/о н/о +3.5 +1.8 89 -2 -2 1006.8 1005.5
06 18.07 СВ 5 н/о н/о +3.0 +1.6 91 -2 -2 1006.9 1005.6 +2.5 +9.0
09 18.07 штиль 0 н/о н/о +2.7 +1.4 91 +2 +2 1006.9 1005.6
12 18.07 Ю 2 н/о н/о +4.2 +1.7 84 +2 +2 1006.7 1005.4 +2.4 +9.0
15 18.07 ЮЗ 5 н/о н/о +11.0 +6.7 75 +8 +8 1006.8 1005.5
18 18.07 ЮЗ 5 н/о н/о +7.4 +4.5 82 +4 +4 1008.1 1006.8 +2.4 +11.5
21 18.07 З 7 н/о н/о +11.0 +7.0 76 +8 +8 1009.6 1008.3
00 19.07 Ю 2 н/о н/о +6.3 +3.4 82 +4 +4 1011.0 1009.7 +2.4 +13.7
03 19.07 З 5 н/о н/о +11.3 +6.4 72 +9 +9 1011.9 1010.6
06 19.07 СЗ 2 н/о н/о +9.8 +5.8 76 +8 +8 1011.9 1010.6 +2.4 +13.7 17
09 19.07 ЮЗ 5 н/о н/о +5.5 +4.4 93 +1 +1 1012.3 1011.0
12 19.07 З 6 н/о {осадки} н/о +5.6 +3.0 83 +1 +1 1013.2 1011.9 +4.5 +13.7 0.2
15 19.07 З 9 н/о н/о +5.5 +1.2 74 -0 -0 1013.6 1012.3
18 19.07 З 9 н/о н/о +6.1 +0.9 69 +1 +1 1014.4 1013.1 +4.5 +9.8
21 19.07 З 6 н/о н/о +6.5 +1.6 71 +2 +2 1014.8 1013.5

 

Местоположение метеостанции Peterborough Arpt (Канада): широта 44.23 долгота -78.36 высота над уровнем моря 191 м.

В архиве по умолчанию представлена погода в Peterborough Arpt за последнюю неделю. Архивные данные за месяц целиком и за предыдущие месяцы, начиная с января 2011 года, Вы можете получить, выбрав интересующий диапазон дат из раскрывающегося списка и нажав кнопку "Ввод!".


*Определитесь, кто Вы:
робот инопланетянин человек

Внимание! Время в таблицах - всемирное. Для получения местного времени необходимо прибавить поправку, которая в Peterborough Arpt равна -5 ч.

Смотрите также архив погоды в соседних городах и на ближайших метеорологических станциях:

Погода в Peterborough Trent (Канада) (14 км)
Погода в Cobourg (Канада) (35 км)
Погода в Oshawa (Канада) (54 км)
Погода в Trenton (Канада) (67 км)
Погода в Lagoon City (Канада) (75 км)
Погода в Toronto Buttonville (Канада) (89 км)
Погода в Buttonville (Канада) (89 км)
Погода в Barrie-oro (Канада) (98 км)
Погода в Toronto Aes Hq (Канада) (101 км)
Погода в Bancroft Auto (Канада) (101 км)

Пояснения к столбцам:

Ветер - указаны скорость ветра в м/с - средняя за 10 мин, порывы в срок и между сроками (в фигурных скобках) и направление, откуда дует ветер: С - северный, СВ - северо-восточный, В - восточный, ЮВ - юго-восточный, Ю - южный, ЮЗ - юго-западный, З - западный, СЗ - северо-западный.
Видимость - горизонтальная дальность видимости в метрах или километрах. При видимости от 1 до 10 км при отсутствии осадков обычно наблюдается дымка, при ухудшении видимости до 1 км и менее - туман. В сухую погоду видимость может ухудшаться дымом, пылью или мглою.
Явления - указаны атмосферные явления, наблюдавшиеся в срок или в последний час перед сроком; фигурными скобками обозначены явления, наблюдавшиеся между сроками (за 1-3 часа до срока); квадратными скобками обозначены град или гололедные отложения с указанием их диаметра в мм.
Облачность - указаны через наклонную черту общая и нижняя облачность в баллах и высота нижней границы облаков в метрах; квадратными скобками обозначены формы облаков: Ci - перистые, Cs - перисто-слоистые, Cc - перисто-кучевые, Ac - высококучевые, As - высокослоистые, Sc - слоисто-кучевые, Ns - слоисто-дождевые, Cu - кучевые, Cb - кучево-дождевые. Подробнее классификацию облаков см. в Атласе облаков (PDF).
T - Температура воздуха - температура, измеренная на высоте 2 м над землей.
Td - Температура точки росы - температура, при понижении до которой содержащийся в воздухе водяной пар достигнет насыщения.
f - Относительная влажность воздуха - влажноcть воздуха, измеренная на высоте 2 м над землей.
Te - Эффективная температура - температура, которую ощущает одетый по сезону человек в тени. Характеристика душности погоды. При расчете учитывается влияние влажности воздуха и скорости ветра на теплоощущения человека.
Tes - Эффективная температура на солнце - температура, которую ощущает человек, с поправкой на солнечный нагрев. Характеристика знойности погоды. Зависит от высоты солнца над горизонтом, облачности и скорости ветра. Ночью, в пасмурную погоду, а также при ветре 12 м/с и более поправка равна нулю.
P - Атмосферное давление - приведенное к уровню моря атмосферное давление.
Po - Атмосферное давление - измеренное на уровне метеостанции атмосферное давление.
Tmin - Минимальная температура - минимум температуры воздуха на высоте 2 м над землей.
Tmax - Максимальная температура - максимум температуры воздуха на высоте 2 м над землей.
R - Количество осадков - Количество выпавших осадков за период времени, мм. При наведении курсора мыши на число - период времени, за который выпало указанное количество осадков.
R24 - Количество осадков - Количество выпавших осадков за 24 часа, мм.
S - Снежный покров - Высота снежного покрова, см. При наведении курсора мыши на число - состояние снежного покрова и степень покрытия местности в баллах.